N2GCT Weather Reports


time (UTC)temp
F
wind
direction
speed
knots
gust
knots
rain 1hr
in
rain 24hr
in
rain mn
in
humidity
%
barometer
mb
20260504044543 43 238 0.0 1.7 0.00 0.00 0.00 76 1010.4
20260504044524 43 236 0.9 1.7 0.00 0.00 0.00 76 1010.7
20260504043049 43 0 0.0 2.6 0.00 0.00 0.00 73 1010.8
20260504043030 43 225 0.0 2.6 0.00 0.00 0.00 73 1011.1
20260504041541 43 236 0.0 1.7 0.00 0.00 0.00 75 1010.8
20260504041527 43 235 0.0 1.7 0.00 0.00 0.00 75 1011.2
20260504040041 43 235 0.0 1.7 0.00 0.00 0.00 75 1010.8
20260504040006 43 196 0.0 1.7 0.00 0.00 0.00 75 1011.1
20260504034545 42 196 0.0 2.6 0.00 0.00 0.00 74 1010.8
20260504034508 42 232 0.0 2.6 0.00 0.00 0.00 74 1011.1
20260504033044 42 0 0.0 1.7 0.00 0.00 0.00 74 1010.8
20260504033006 42 271 0.0 1.7 0.00 0.00 0.00 74 1011.2
20260504031544 42 271 0.0 1.7 0.00 0.00 0.00 74 1010.7
20260504031506 42 271 0.0 1.7 0.00 0.00 0.00 74 1011.0
20260504030042 42 260 0.9 1.7 0.00 0.00 0.00 75 1010.6
20260504030008 42 259 0.9 1.7 0.00 0.00 0.00 75 1010.9
20260504024538 40 217 0.0 1.7 0.00 0.00 0.00 77 1010.7
20260504024507 40 217 0.0 1.7 0.00 0.00 0.00 77 1010.9
20260504023038 40 217 0.0 0.9 0.00 0.00 0.00 81 1010.6
20260504023007 40 217 0.0 0.9 0.00 0.00 0.00 81 1010.8
20260504021547 39 0 0.0 0.0 0.00 0.00 0.00 79 1010.6
20260504021507 39 217 0.0 0.0 0.00 0.00 0.00 79 1010.8
20260504020046 39 0 0.0 0.0 0.00 0.00 0.00 77 1010.5
20260504020003 39 217 0.0 0.0 0.00 0.00 0.00 77 1010.9
20260504014545 39 0 0.0 0.0 0.00 0.00 0.00 75 1010.5
20260504014508 39 217 0.0 0.0 0.00 0.00 0.00 75 1010.9
20260504013051 41 0 0.0 0.0 0.00 0.00 0.00 73 1010.4
20260504013012 41 217 0.0 0.0 0.00 0.00 0.00 73 1010.9
20260504011545 42 217 0.0 0.9 0.00 0.00 0.00 68 1010.3
20260504011508 42 217 0.0 0.9 0.00 0.00 0.00 68 1010.9
20260504010051 44 0 0.0 0.0 0.00 0.00 0.00 63 1010.1
20260504010006 44 217 0.0 0.0 0.00 0.00 0.00 63 1010.5
20260504004545 46 0 0.0 1.7 0.00 0.00 0.00 62 1009.9
20260504004506 46 217 0.0 1.7 0.00 0.00 0.00 62 1010.4
20260504003042 48 217 0.0 0.9 0.00 0.00 0.00 56 1009.8
20260504003008 48 217 0.0 0.9 0.00 0.00 0.00 56 1010.3
20260504001540 50 170 0.0 1.7 0.00 0.00 0.00 50 1009.8
20260504001508 50 154 0.0 1.7 0.00 0.00 0.00 50 1010.3
20260504000050 51 236 0.9 2.6 0.00 0.00 0.00 48 1009.7
20260504000013 51 236 0.9 2.6 0.00 0.00 0.00 48 1010.2
20260503234543 52 40 0.0 3.5 0.00 0.00 0.00 46 1009.7
20260503234526 51 34 0.9 3.5 0.00 0.00 0.00 46 1010.1
20260503233046 52 253 0.9 9.6 0.00 0.00 0.00 45 1009.5
20260503233027 52 258 0.9 9.6 0.00 0.00 0.00 45 1010.0
20260503231544 52 232 1.7 5.2 0.00 0.00 0.00 44 1009.3
20260503231526 52 252 2.6 5.2 0.00 0.00 0.00 44 1009.8
20260503230044 52 360 0.9 3.5 0.00 0.00 0.00 41 1009.1
20260503230024 52 219 0.9 3.5 0.00 0.00 0.00 41 1009.6
20260503224545 53 308 3.5 7.8 0.00 0.00 0.00 39 1009.0
20260503224531 53 304 3.5 7.8 0.00 0.00 0.00 39 1009.5
20260503223046 53 5 0.9 7.8 0.00 0.00 0.00 37 1008.9
20260503223028 53 321 1.7 7.8 0.00 0.00 0.00 37 1009.5
20260503221543 53 273 2.6 10.4 0.00 0.00 0.00 37 1008.8
20260503221527 53 263 1.7 10.4 0.00 0.00 0.00 37 1009.4
20260503220043 54 315 4.3 9.6 0.00 0.00 0.00 35 1008.8
20260503220027 54 9 5.2 9.6 0.00 0.00 0.00 35 1009.4
20260503214543 55 254 1.7 8.7 0.00 0.00 0.00 34 1008.7
20260503214531 55 348 2.6 8.7 0.00 0.00 0.00 34 1009.1
20260503213046 54 348 1.7 10.4 0.00 0.00 0.00 33 1008.8
20260503213028 54 25 2.6 10.4 0.00 0.00 0.00 33 1009.3
20260503211549 55 347 4.3 13.0 0.00 0.00 0.00 31 1008.8
20260503211527 55 34 5.2 13.0 0.00 0.00 0.00 31 1009.4
20260503210043 55 360 3.5 10.4 0.00 0.00 0.00 32 1008.6
20260503210040 55 345 3.5 10.4 0.00 0.00 0.00 32 1009.2
20260503204542 55 57 2.6 12.2 0.00 0.00 0.00 31 1008.5
20260503204527 55 17 3.5 12.2 0.00 0.00 0.00 31 1009.1
20260503203055 55 228 7.0 14.8 0.00 0.00 0.00 30 1008.9
20260503203028 55 346 7.0 14.8 0.00 0.00 0.00 30 1009.3
20260503201547 55 252 1.7 8.7 0.00 0.00 0.00 31 1008.8
20260503201533 55 323 2.6 8.7 0.00 0.00 0.00 31 1009.4
20260503200048 55 71 4.3 11.3 0.00 0.00 0.00 32 1009.3
20260503200026 55 300 4.3 9.6 0.00 0.00 0.00 32 1009.8
20260503194542 54 19 4.3 12.2 0.00 0.00 0.00 34 1009.6
20260503194528 54 62 3.5 12.2 0.00 0.00 0.00 34 1010.0
20260503193045 53 277 4.3 11.3 0.00 0.00 0.00 35 1009.6
20260503193025 53 11 3.5 11.3 0.00 0.00 0.00 35 1010.0
20260503191550 54 9 6.1 17.4 0.00 0.00 0.00 34 1009.9
20260503191530 54 222 6.1 17.4 0.00 0.00 0.00 34 1010.3
20260503190043 53 348 3.5 10.4 0.00 0.00 0.00 36 1009.9
20260503190009 53 299 3.5 10.4 0.00 0.00 0.00 36 1010.3
20260503184558 52 217 2.6 9.6 0.00 0.00 0.00 41 1009.9
20260503184508 52 264 2.6 9.6 0.00 0.00 0.00 41 1010.5
20260503183044 51 242 2.6 9.6 0.00 0.00 0.00 43 1010.2
20260503183008 51 277 2.6 9.6 0.00 0.00 0.00 43 1010.8
20260503181543 50 196 2.6 10.4 0.00 0.00 0.00 43 1010.3
20260503181510 50 180 1.7 10.4 0.00 0.00 0.00 43 1010.8
20260503180049 50 306 5.2 13.0 0.00 0.00 0.00 39 1010.6
20260503180008 50 360 3.5 13.0 0.00 0.00 0.00 39 1010.9
20260503174544 49 243 0.9 10.4 0.00 0.00 0.00 43 1010.6
20260503174509 49 252 0.9 10.4 0.00 0.00 0.00 43 1011.1
20260503173051 49 23 3.5 9.6 0.00 0.00 0.00 44 1010.9
20260503173007 49 300 4.3 9.6 0.00 0.00 0.00 44 1011.4
20260503171542 48 259 3.5 10.4 0.00 0.00 0.00 43 1011.0
20260503171508 48 34 3.5 10.4 0.00 0.00 0.00 43 1011.5
20260503081544 34 0 0.0 0.0 0.00 0.00 0.00 86 1011.3
20260503081507 34 238 0.0 0.0 0.00 0.00 0.00 86 1011.9
20260503071549 33 150 0.0 1.7 0.00 0.00 0.00 89 1011.6
20260503071515 33 150 0.9 1.7 0.00 0.00 0.00 89 1011.9